CZ-6A DEB

基本信息
目录编号:
54282
目录名称:
CZ-6A DEB
国际标识:
2022-151Z
轨道中心:
EARTH
物体状态:
在轨
发射日期:
2022-11-11 UTC
轨道信息
数据来源: 国际轨道数据
星历时间: 2026-09-10T01:30:41+0800
半长轴: 6998.821km
偏心率: 0.0050321
轨道倾角: 98.577°
近地点辐角: 22.098°
升交点赤经: 314.268°
平近点角: 338.239°
近地点: 585.465km
远地点: 655.903km
周期: 97.117分钟
每日圈数: 14.827416
详细信息
发射场:
TSC
轨道高度:
LEO
数据来源:
AOE Integration Group
参考系:
TEME
时间系统:
UTC
历元类型:
SGP4
2D轨道图
3D轨道图
轨道高度分析图
轨道倾角分析图
轨道综合分析图
查看轨道综合分析图